This demonstration page uses our WeatherBlox Daily Observations layout. Learn more.

Left ArrowRight Arrow

39.01783, -85.05884

Hourly Observations for June 13, 2018

Temp ( °F °C ) Dew Point ( °F °C ) Humidity (%) Winds ( mph kmh ) Pressure ( in mb ) Visibility ( mi km ) Precip ( " mm )
12:52 am 00:52 Cloudy with Thunderstorms 70 21.1 69 20.6 97 97 SSW 10 17 29.92 1013 5 8 0.10 2.54
1:22 am 01:22 Cloudy with Light Rain 70 21.1 69 20.6 97 97 S 15 24 29.91 1013 7 11 0.05 1.27
1:52 am 01:52 Cloudy 71 21.7 70 21.1 96 96 WSW 7 11 29.91 1013 10 16 0.05 1.27
2:52 am 02:52 Cloudy 70 21.1 69 20.6 97 97 SSW 9 15 29.91 1013 10 16 N/A
3:52 am 03:52 Cloudy 69 20.6 67 19.4 93 93 SSW 7 11 29.92 1013 9 14 N/A
4:52 am 04:52 Cloudy 69 20.6 67 19.4 93 93 SSW 7 11 29.90 1013 8 13 N/A
5:52 am 05:52 Mostly Cloudy 68 20 67 19.4 96 96 SSW 7 11 29.91 1013 7 11 N/A
6:25 am 06:25 Mostly Cloudy with Mist and Fog 68 20 67 19.4 96 96 SW 8 13 29.91 1013 3 5 N/A
6:52 am 06:52 Mostly Cloudy with Mist and Fog 69 20.6 67 19.4 93 93 SW 8 13 29.92 1013 3 5 N/A
7:52 am 07:52 Mostly Cloudy 70 21.1 68 20 93 93 SW 10 17 29.94 1014 7 11 N/A
8:52 am 08:52 Mostly Cloudy 73 22.8 68 20 84 84 WSW 9 15 29.95 1014 10 16 N/A
9:52 am 09:52 Mostly Cloudy 75 23.9 68 20 79 79 WSW 8 13 29.95 1014 10 16 N/A
10:52 am 10:52 Mostly Cloudy 77 25 69 20.6 77 77 WSW 9 15 29.96 1015 10 16 N/A
11:52 am 11:52 Mostly Cloudy 80 26.7 70 21.1 71 71 SW 10 17 29.96 1015 10 16 N/A
12:10 pm 12:10 Mostly Cloudy 79 26.1 70 21.1 74 74 SW 10 17 29.97 1015 10 16 N/A
12:52 pm 12:52 Mostly Cloudy 81 27.2 70 21.1 69 69 SW 9 15 29.95 1014 10 16 N/A
1:43 pm 13:43 Mostly Cloudy 81 27.2 70 21.1 69 69 SW 9 15 29.91 1013 10 16 N/A
1:52 pm 13:52 Mostly Cloudy 82 27.8 71 21.7 69 69 SW 13 20 29.95 1014 10 16 N/A
2:52 pm 14:52 Mostly Cloudy 84 28.9 72 22.2 67 67 SSW 8 13 29.93 1014 10 16 N/A
3:52 pm 15:52 Mostly Cloudy 84 28.9 70 21.1 63 63 WSW 8 13 29.91 1013 10 16 N/A
4:21 pm 16:21 Mostly Cloudy 85 29.4 71 21.7 63 63 SW 9 15 29.88 1012 10 16 N/A
4:52 pm 16:52 Mostly Cloudy 84 28.9 70 21.1 63 63 SW 12 19 29.92 1013 10 16 N/A
5:52 pm 17:52 Mostly Cloudy 81 27.2 70 21.1 69 69 WSW 8 13 29.92 1013 10 16 N/A
6:52 pm 18:52 Mostly Cloudy 80 26.7 70 21.1 71 71 W 6 9 29.91 1013 10 16 N/A
7:25 pm 19:25 Mostly Cloudy 79 26.1 67 19.4 67 67 NNW 5 7 29.91 1013 10 16 N/A
7:52 pm 19:52 Mostly Cloudy 79 26.1 67 19.4 67 67 NW 10 17 29.92 1013 10 16 N/A
8:52 pm 20:52 Mostly Cloudy 73 22.8 63 17.2 71 71 W 6 9 29.92 1013 10 16 N/A
9:52 pm 21:52 Mostly Cloudy 70 21.1 62 16.7 76 76 W 6 9 29.94 1014 10 16 N/A
10:52 pm 22:52 Mostly Cloudy 72 22.2 64 17.8 76 76 NW 7 11 29.97 1015 10 16 N/A
11:52 pm 23:52 Cloudy 70 21.1 65 18.3 84 84 N N/A 29.99 1016 10 16 N/A

Powered by AerisWeather